Terminal Aerodrome Forecast
Issued by NWS Cleveland, OH

Home | Current Version | Previous Version | Graphics & Text | Print | Product List | Glossary On
Versions: 1 2 3 4 5 6 7 8 9 10 11 12 13 14 15
925
FTUS41 KCLE 220538
TAFMFD
TAF
KMFD 220538Z 2206/2306 VRB03KT P6SM SCT250
      TEMPO 2209/2212 5SM BR
     FM221400 20005KT P6SM BKN250=

USA.gov is the U.S. government's official web portal to all federal, state and local government web resources and services.